Showing default

PRAETORIAN SDA_614, 65577

Orbit data source: Space-Track

PRAETORIAN SDA_614, 65577 is a payload satellite owned by SDA (US) in LEO that was launched on Wed, 10 Sep 2025 UTC via an FALCON 9 launch vehicle from the Air Force Western Test Range (AFWTR). Payload-class satellites include a variety of spacecraft equipped with specific instruments for various scientific and technological missions. These include communications satellites like Starlink; space stations such as the ISS; scientific satellites like the Hubble; Earth observation satellites from companies like Planet Labs, Umbra, and HawkEye 360; GPS; miniature CubeSats for education and research; and military/defense satellites.

Loading next visibility...
Identifier
65577, 2025-203N
Orbit
LEO
Country
Flag of USUS
Related business
Manufacturer
York Space Sys
Mission
Operational Defense Communications
Bus & Motor
S-CLASS, Unknown motor
Mass
~300 kg wet, ~300 kg dry
Launch date (UTC)
2025-09-10 (9 months ago)
Launch vehicle
FALCON 9
Launch site
Air Force Western Test Range (AFWTR)
Object type
Payload
Rocket body
Debris
Shape & HBR
Box + 4 Pan, 14.5 m
Radar Cross Section
1.244 m², Large (>1 m²)

Expand to show TLE details & history
Last TLE update: 13 hours ago

TLE from 13 hours ago
0 PRAETORIAN SDA_614
1 65577U 25203N   26171.28680602  .00000082  00000-0  61872-4 0  9999
2 65577  81.3014   7.7208 0007187 175.0044 185.1186 13.84777598 39143
Epoch: 2026-06-20T06:53Z
TLE epoch observation values (Epoch: 2026-06-20T06:53:00.040Z)
Latitude
-0°
Longitude
-4.03297°
Altitude
955.101 km
Speed
7.372 km/s
True Right ascension
00h 30m 52s
True Declination
0° 00' 00"
Sunlit
Object was in daylight at epoch
Visualization orbit readout
Latitude
Unknown
Longitude
Unknown
Altitude
Unknown
Speed
Unknown
Apparent Right ascension
Unknown
Apparent Declination
Unknown
Sunlit
N/A
Visualization observer readout
Local Sidereal Time
07:13:16
Azimuth
Unknown
Elevation
Unknown
Doppler factor
Unknown
Orbital elements
Apogee altitude
949.458 km
Perigee altitude
938.933 km
Semi-major axis
7,322.332 km
Eccentricity
0.00072
Inclination
81.3014°
RAAN
7.7208°
Arg. of periapsis
175.0044°
True anomaly
185.11126°
Mean anomaly
185.1186°
Eccentric anomaly
185.11493°
Mean motion
3.46393 °/min
Orbital period
103.93 mins
BSTAR
0.000061872
Loading maneuver chart data...
Computing Atmospheric mass density...

Documentation

Showing up to 5 results
|